Theta_e
335 334 336 336 337 338 338 338 339 339 341 342 341 340 341 340 340 340 339 339 338 338 337 337 336 336 336 337 337 338 338 336 335 332 331 332 329 330 333 330 330 331 332 331 329 323 322 319 323 332 334 333 333 334 333 333 333 332 333 333 332 333 333
335 334 334 335 336 337 336 336 336 335 336 338 338 339 337 336 337 337 337 337 337 337 336 336 338 337 336 336 336 336 334 336 336 335 333 331 332 330 330 331 331 330 331 332 331 329 324 322 322 324 326 333 332 332 333 333 335 334 333 333 333 333 332
333 332 333 333 333 335 333 333 333 333 333 334 335 335 335 334 334 334 335 335 336 336 336 336 336 336 337 336 336 336 336 334 335 336 331 331 332 333 332 331 329 329 329 327 327 326 325 325 319 322 326 327 325 329 333 333 333 334 334 334 332 333 331
331 332 331 331 331 332 331 331 331 331 331 331 332 332 330 330 331 332 332 333 334 334 335 335 336 336 337 337 336 335 336 334 333 333 332 332 334 332 332 331 330 330 327 325 326 327 325 322 321 321 324 326 326 327 332 334 334 334 334 335 333 331 332
330 329 329 328 328 328 327 327 327 328 327 328 327 328 327 327 328 329 330 331 331 332 333 334 335 336 336 336 336 335 333 334 334 333 331 331 331 332 332 332 331 329 328 327 328 329 326 325 322 322 322 325 325 327 331 335 336 334 334 334 334 333 332
329 328 327 326 326 325 324 324 323 322 323 323 322 322 322 323 324 325 326 327 328 330 331 332 333 334 333 334 334 333 333 332 333 333 331 331 331 329 329 331 332 330 329 332 332 328 328 330 326 320 323 326 321 323 328 332 330 332 333 334 335 334 333
325 325 324 323 323 323 322 321 320 320 320 319 319 319 320 320 321 322 323 325 326 327 328 329 331 332 332 332 332 332 332 333 333 333 332 332 332 332 333 330 330 329 330 331 330 329 328 328 324 323 322 323 324 322 326 328 330 328 329 333 335 336 334
323 322 321 321 320 320 320 319 319 319 317 318 318 319 319 319 319 320 321 321 322 324 326 327 328 329 332 331 331 333 333 334 333 333 332 331 330 330 331 331 331 329 329 330 330 331 332 329 326 325 324 320 321 324 323 326 328 328 326 332 333 335 333
321 320 319 319 318 319 318 318 317 318 317 317 318 317 318 318 317 318 318 318 320 322 324 326 327 327 328 328 329 331 331 332 331 331 332 332 331 331 330 330 329 329 332 333 332 331 330 330 329 328 326 323 318 316 321 322 325 325 330 331 333 334 334
318 317 317 317 317 318 317 317 316 316 316 316 315 316 316 316 316 316 316 317 318 321 323 325 326 325 326 326 327 328 328 330 331 330 331 330 332 333 332 331 330 330 330 330 331 332 331 331 330 329 328 325 323 319 317 317 320 321 325 330 327 330 333
317 316 316 316 316 316 316 315 315 314 313 314 314 315 315 314 314 315 314 315 317 318 319 320 322 323 325 326 327 327 327 327 328 330 330 330 331 331 331 330 331 329 329 331 331 332 330 330 330 329 329 328 328 322 321 316 318 324 325 331 331 331 334
316 316 315 316 316 315 313 313 312 312 313 313 313 313 313 312 312 312 312 313 314 314 315 316 316 317 320 323 324 323 324 326 326 324 327 329 330 330 330 330 331 330 330 330 331 332 332 331 331 331 330 329 328 326 323 322 317 324 328 327 332 334 332
315 314 315 315 314 313 312 312 311 311 311 311 311 312 311 310 311 311 311 311 312 312 312 313 314 315 316 318 319 318 319 321 321 322 322 324 326 329 329 328 328 329 329 330 331 332 332 331 331 330 330 330 329 329 327 323 320 320 330 329 332 330 331
314 314 314 314 313 312 312 312 311 311 311 310 311 310 310 310 310 310 310 310 310 311 310 311 311 312 313 314 315 315 315 316 316 317 318 319 321 324 327 327 327 328 329 329 330 330 331 330 330 330 331 330 328 328 327 324 320 320 326 332 331 329 330
314 314 313 313 312 311 311 311 312 312 311 310 310 310 310 310 310 310 309 309 310 310 309 309 310 311 310 310 312 313 313 312 312 313 315 316 317 319 321 323 325 327 329 329 329 329 330 331 329 328 330 330 328 327 329 325 323 322 322 329 326 329 328
313 313 312 312 311 311 311 311 311 310 310 310 310 309 309 310 310 309 309 308 308 308 308 308 308 308 308 308 309 310 311 311 310 311 311 313 314 316 317 319 321 324 327 328 328 329 330 331 330 329 329 330 329 329 329 328 324 321 321 324 327 325 326
312 312 311 310 310 310 310 310 310 309 309 309 309 309 309 309 308 308 307 307 307 306 306 306 306 307 307 307 307 307 307 308 308 309 309 310 312 313 315 316 319 321 324 325 327 327 328 330 329 328 327 328 329 328 330 330 327 324 324 322 325 324 327
310 310 309 309 309 309 308 308 308 308 308 308 308 308 308 308 308 307 306 305 305 305 304 305 305 305 305 306 305 305 305 306 307 307 308 308 310 311 313 315 317 319 321 323 326 326 327 328 328 328 327 328 328 329 328 329 327 326 324 321 323 327 327
309 309 308 308 308 308 307 307 307 308 307 307 307 307 307 306 306 305 305 305 304 304 304 304 304 303 303 303 304 304 305 305 305 306 306 307 308 310 311 313 315 317 319 322 324 326 328 328 328 327 327 327 328 328 328 328 328 326 325 323 323 322 325
308 308 308 308 308 307 306 307 307 306 306 306 305 305 305 305 305 305 304 304 304 303 303 303 302 302 302 302 304 305 305 305 305 306 307 308 309 310 311 313 315 317 319 322 324 324 325 326 326 325 325 326 327 327 326 327 326 325 324 323 324 324 323
307 307 307 307 306 306 306 306 306 306 306 305 304 304 304 304 305 305 304 303 303 303 302 301 301 300 301 302 305 306 306 306 305 307 308 310 311 312 313 315 316 318 320 320 320 320 322 322 323 323 325 325 325 324 323 326 325 324 322 322 322 322 323
307 307 306 306 305 305 305 306 305 305 305 305 305 304 304 304 304 303 304 304 303 303 301 300 300 299 300 301 305 307 307 306 307 307 308 308 309 309 310 311 312 314 316 317 312 311 310 310 315 318 321 322 322 323 324 325 324 322 321 321 321 322 321
306 305 305 304 304 305 304 305 305 304 303 304 304 304 303 304 304 304 303 304 303 301 300 299 299 296 297 300 304 307 306 306 306 305 305 305 306 307 307 309 311 313 311 311 310 305 303 303 306 311 315 317 318 318 319 321 321 322 321 320 320 320 319
305 304 304 304 304 304 304 304 304 303 303 303 303 303 303 302 302 303 303 303 302 301 300 298 294 293 293 295 303 306 305 305 304 304 304 304 304 304 306 307 309 311 310 310 310 304 302 301 301 301 302 304 306 311 313 315 317 320 320 319 320 320 319
304 303 303 303 303 303 304 304 303 303 302 302 302 303 302 303 303 303 303 303 302 301 300 296 292 293 293 294 297 305 305 304 304 303 303 302 303 303 304 305 307 309 309 309 309 310 308 304 302 302 301 301 300 299 298 305 307 310 315 317 319 320 320
302 302 302 303 303 303 303 302 302 302 301 302 303 302 302 302 302 303 303 302 302 301 300 294 292 293 293 293 294 301 305 304 303 303 303 302 302 302 303 304 305 306 307 307 307 306 310 314 307 304 304 304 304 300 296 296 297 304 307 308 312 317 321
301 301 302 302 302 302 302 301 302 302 302 302 303 303 303 302 302 302 302 303 302 301 299 294 292 292 292 292 293 298 304 304 303 303 302 302 302 301 301 302 302 303 304 305 303 302 307 313 313 314 313 312 312 308 302 300 299 298 302 309 311 311 317
301 302 302 302 302 302 302 302 301 302 302 302 302 302 302 302 301 302 302 303 302 301 298 292 292 292 292 292 293 298 304 304 303 302 302 302 302 301 301 301 301 302 302 302 300 298 303 309 311 311 310 309 309 309 308 306 305 305 305 305 305 307 310
302 302 302 302 301 301 301 302 301 302 302 302 302 302 302 302 301 301 301 302 301 301 299 292 291 292 292 291 295 305 304 302 301 301 301 301 301 301 301 301 301 301 302 301 297 292 295 305 310 309 308 307 307 308 308 304 298 298 302 302 302 301 301
301 301 301 301 300 300 301 301 301 302 301 301 300 300 300 300 301 300 300 300 301 301 300 294 291 291 292 291 298 303 303 301 300 300 299 300 300 301 300 300 299 300 301 300 294 292 292 299 307 307 306 305 305 305 304 307 301 297 295 295 295 295 295
300 300 300 300 300 300 301 301 301 302 301 300 300 300 300 300 300 300 299 299 299 300 300 296 291 291 292 291 297 302 302 301 300 299 299 300 300 300 300 299 300 298 298 298 292 292 292 300 304 304 304 304 303 302 302 304 306 305 299 298 297 296 295
300 300 299 300 300 300 300 301 301 302 301 301 301 301 300 299 299 300 300 300 298 299 300 297 292 291 291 291 298 303 301 300 299 298 298 298 299 299 299 299 297 295 295 294 291 292 292 298 303 302 302 301 300 300 301 302 302 303 304 304 304 304 303
300 300 299 300 300 300 301 301 301 301 301 301 300 300 300 300 299 299 300 300 299 299 299 299 296 291 292 292 292 300 300 298 297 297 297 296 297 298 298 298 297 292 291 291 291 291 292 292 301 302 302 300 299 299 302 302 301 302 302 302 302 302 302
299 299 300 300 300 300 300 300 301 301 300 300 300 299 300 300 299 299 300 300 300 299 299 299 297 291 291 291 291 294 299 298 297 296 296 296 296 296 296 297 298 293 291 291 291 291 292 292 294 300 299 299 299 298 299 303 302 300 302 302 301 301 301
300 300 300 301 300 299 300 301 300 300 300 300 299 299 299 299 299 299 300 300 300 300 299 296 298 294 291 291 291 291 297 298 297 299 297 297 297 296 296 296 296 293 291 291 291 291 291 292 293 298 296 292 292 292 302 303 304 303 302 301 300 299 299
299 300 300 300 300 299 300 300 300 301 300 300 299 299 299 299 299 298 298 299 299 300 300 299 293 296 292 291 291 291 290 294 292 299 298 296 296 296 297 296 296 293 291 291 291 291 291 292 295 295 291 292 293 293 297 302 302 302 300 300 299 297 297
298 299 300 300 300 300 300 300 300 300 300 299 298 298 298 298 298 297 297 297 298 299 300 300 296 293 295 291 291 290 290 290 291 298 298 296 296 295 295 295 294 290 291 291 291 292 291 291 293 291 291 292 294 295 300 300 299 299 299 297 297 296 295
Wind_Speed
5 5 5 4 3 2 3 4 4 4 5 4 5 4 4 3 2 1 2 3 3 4 4 4 5 5 5 6 6 6 5 5 6 7 7 6 6 5 7 9 10 11 10 9 8 9 10 11 10 6 7 8 9 11 12 13 14 12 8 9 11 9 8
6 5 4 2 3 3 5 4 4 4 4 4 5 4 5 5 4 4 3 3 4 4 4 5 5 4 5 6 6 6 7 5 5 6 7 7 7 7 7 6 7 7 8 9 9 8 8 9 12 11 9 7 9 10 10 12 10 10 10 9 9 11 10
4 3 3 4 4 3 5 4 3 4 3 3 4 4 5 5 5 5 4 3 4 4 5 5 5 5 5 5 6 7 7 8 5 5 7 6 6 6 7 8 7 6 6 7 8 10 10 10 11 12 9 9 10 8 10 12 14 15 13 10 11 11 12
5 4 4 4 3 3 3 4 3 3 3 3 3 4 5 6 5 5 5 4 4 4 4 5 5 5 5 5 6 7 7 8 7 8 8 8 6 8 9 7 8 8 7 6 4 4 6 7 8 11 11 11 12 12 8 10 12 14 14 13 12 12 12
5 4 4 4 3 3 4 3 3 2 3 3 4 4 5 7 5 4 5 5 4 4 5 5 5 5 6 6 5 5 7 7 8 8 8 9 9 7 8 7 7 7 8 8 7 7 7 7 7 10 11 9 10 11 9 7 10 10 12 13 13 12 11
5 4 4 4 4 3 3 3 3 3 3 4 5 5 6 7 5 5 6 5 5 5 6 6 6 6 6 6 7 7 6 8 9 9 8 8 8 8 9 9 8 8 9 7 8 9 8 8 9 10 11 7 10 9 9 8 8 9 11 13 14 14 11
5 5 5 5 4 4 4 4 4 5 4 5 5 6 6 7 6 6 6 6 6 6 6 6 6 6 6 6 7 8 8 8 8 10 10 10 9 10 8 9 10 8 8 8 9 8 9 8 9 9 9 8 9 12 9 8 8 8 10 12 13 11 13
5 5 5 5 5 5 4 5 5 5 5 5 6 6 6 7 7 7 7 6 6 7 7 6 6 6 6 6 7 8 7 8 9 9 9 9 9 11 10 8 8 9 9 8 9 8 8 8 8 9 8 10 8 9 10 8 7 11 12 7 11 9 10
6 5 5 5 5 5 5 5 5 6 6 6 6 6 7 7 7 7 7 7 7 7 6 6 6 6 6 6 6 7 9 7 9 11 10 10 11 11 8 7 8 9 9 9 8 9 9 8 9 8 8 9 11 12 9 9 7 10 11 8 6 10 10
8 7 6 6 5 6 6 6 6 6 6 6 6 6 7 7 7 8 7 7 7 7 7 7 7 5 6 5 5 6 7 8 9 10 10 10 11 10 10 10 7 7 8 9 9 8 7 7 8 8 8 9 10 10 10 9 10 10 9 10 9 11 14
7 6 6 6 6 6 6 6 6 6 7 7 7 7 7 8 8 8 8 8 7 7 8 7 8 8 8 8 8 8 8 7 9 9 10 11 11 10 11 9 9 8 9 8 8 9 8 8 9 8 8 9 8 10 10 10 11 8 8 7 10 7 8
6 6 7 7 6 7 7 7 7 7 7 8 8 8 8 9 9 9 9 8 8 9 8 8 8 8 8 7 7 8 8 9 8 9 10 10 10 10 10 12 10 9 9 9 9 9 9 9 9 9 9 8 8 9 11 10 11 8 7 7 8 8 7
7 7 6 6 6 7 8 8 8 8 8 7 8 8 8 9 10 10 9 9 10 9 10 9 9 9 8 7 8 7 8 9 9 8 8 8 10 11 12 12 11 10 10 8 9 9 8 9 9 9 9 8 8 8 9 10 12 15 7 9 6 7 9
7 6 7 7 8 8 8 8 8 7 7 8 8 9 9 9 10 10 10 10 10 10 10 10 9 8 8 8 8 9 9 9 10 9 8 9 9 10 11 11 12 12 12 11 9 9 9 8 8 8 9 9 9 8 9 9 11 14 12 6 5 7 8
6 6 8 9 9 8 8 7 7 7 8 8 9 9 9 9 8 9 9 9 9 9 9 9 9 9 8 9 9 7 9 10 10 10 9 10 9 8 9 12 12 12 12 11 11 11 9 8 8 8 9 9 9 9 7 9 10 11 14 5 8 6 7
7 8 9 8 9 8 7 8 8 8 8 8 8 8 8 8 8 9 9 9 9 9 10 10 9 10 9 9 9 9 9 10 11 11 11 10 10 9 10 10 11 11 10 12 11 10 10 10 8 8 9 9 10 10 9 9 10 11 13 11 8 8 7
8 8 8 8 9 9 8 8 8 9 8 8 8 8 8 9 9 9 9 10 10 10 10 10 10 10 11 11 10 11 10 10 10 11 11 10 10 10 10 10 10 11 12 13 12 10 8 8 8 9 9 9 9 11 9 8 10 10 10 11 8 9 8
8 8 8 8 9 9 9 9 8 10 9 9 8 8 9 9 9 10 10 10 11 11 10 10 11 11 10 10 11 11 10 10 10 10 10 10 10 10 10 9 10 11 11 11 12 10 8 10 10 9 8 9 10 10 9 8 10 10 10 11 8 7 8
8 8 8 8 9 9 9 10 10 9 9 9 9 9 9 9 9 10 10 10 10 10 10 10 10 11 12 11 10 11 10 10 9 10 9 9 10 9 9 10 10 10 11 11 11 12 10 10 10 10 10 9 9 8 9 8 8 9 11 9 10 8 7
7 8 8 8 8 9 9 10 10 9 9 9 10 10 10 10 10 10 10 10 10 10 10 10 11 13 13 12 11 10 10 10 9 8 9 10 10 10 10 10 10 10 10 10 10 10 11 11 9 10 10 10 9 9 9 8 8 10 9 10 9 9 8
8 8 8 8 9 9 9 9 9 9 9 10 10 11 11 11 10 10 10 10 10 10 11 12 13 14 13 12 11 10 10 10 10 10 10 10 10 10 10 10 9 9 8 9 10 11 11 10 9 9 8 9 9 11 10 8 8 8 8 9 10 9 10
7 8 8 9 9 9 9 9 10 10 10 10 9 10 11 11 11 11 11 11 12 11 11 12 11 11 12 12 11 11 11 12 11 11 11 10 10 10 10 9 8 8 12 14 14 12 11 10 9 9 8 8 8 9 10 9 8 7 7 9 9 8 8
8 8 9 9 9 9 9 9 10 10 11 10 10 10 10 11 11 12 11 13 12 11 12 11 17 20 17 12 11 9 9 10 10 10 11 11 11 11 10 10 9 15 14 14 14 13 14 14 12 9 8 8 9 9 9 9 8 7 7 8 9 8 8
8 9 9 9 9 9 9 9 9 10 10 10 10 10 9 10 11 10 12 12 13 12 12 13 21 17 17 19 13 11 10 10 11 10 9 11 11 12 11 11 10 12 13 14 13 14 13 13 12 13 13 10 6 6 8 8 9 9 8 8 7 7 9
9 9 9 9 9 9 9 9 9 9 8 9 9 8 10 11 11 11 10 12 13 13 13 19 18 19 18 18 15 11 10 10 11 11 9 12 11 12 13 12 11 9 9 14 13 12 13 12 12 12 12 12 10 12 7 4 7 8 8 8 8 8 7
9 9 9 8 8 8 8 8 8 8 8 7 7 10 11 11 11 11 12 12 13 14 15 20 19 19 19 17 16 11 10 10 11 12 13 13 12 12 12 11 11 11 10 17 13 13 12 12 10 10 9 10 9 11 10 9 6 5 6 6 7 8 7
9 9 9 8 6 7 8 9 7 7 7 7 9 11 11 12 12 12 12 12 12 13 15 20 20 20 19 18 15 11 11 11 11 12 13 14 14 14 14 13 12 12 13 14 14 16 13 10 10 9 10 10 9 11 11 12 12 11 9 7 7 8 7
10 9 7 6 7 8 8 7 8 7 8 9 10 10 10 11 11 12 13 12 12 13 14 21 20 20 19 18 14 10 11 11 10 11 12 13 14 16 17 15 14 13 14 14 14 18 14 12 11 10 10 10 11 11 10 11 12 10 9 8 8 9 10
9 9 7 7 8 8 8 8 8 7 7 8 8 9 10 11 12 13 13 13 13 14 14 21 21 21 20 19 13 11 11 11 11 11 12 13 13 15 17 17 15 14 15 16 21 23 19 13 12 11 11 11 11 10 9 8 7 9 8 8 7 7 7
7 7 6 8 8 8 8 9 8 7 8 8 9 9 9 11 11 12 13 13 14 13 14 19 21 21 20 19 12 11 11 11 11 12 13 12 12 14 16 18 16 14 15 16 20 22 22 16 12 12 12 12 11 10 11 10 9 8 9 9 11 11 12
7 7 7 8 9 8 8 7 7 6 8 8 9 9 9 9 10 10 12 14 14 13 14 17 21 20 20 20 13 11 11 11 12 12 12 13 12 11 14 22 21 15 15 15 20 21 23 16 13 13 12 12 13 13 13 13 10 10 12 9 10 10 11
7 7 8 8 7 8 8 7 6 6 7 8 8 8 9 9 10 10 11 11 15 15 14 15 19 19 19 19 14 12 11 11 11 12 10 11 12 11 12 14 20 19 15 16 20 20 22 18 15 15 14 13 13 14 13 14 14 13 13 13 14 15 14
7 7 8 8 7 7 6 7 7 8 8 8 8 8 9 9 11 10 10 12 11 13 14 13 15 18 18 19 17 11 11 11 11 11 11 10 10 11 12 13 14 19 19 19 19 20 20 20 15 15 14 14 14 14 12 13 14 12 13 14 14 14 14
8 8 7 7 7 7 7 7 8 8 9 9 9 9 10 9 10 10 10 11 11 12 11 12 13 17 17 17 18 13 9 12 10 10 10 11 11 12 12 12 10 17 18 19 19 20 19 18 16 13 13 12 12 12 11 12 13 15 14 14 14 13 13
7 6 6 7 8 8 7 8 7 8 8 9 11 10 9 9 10 10 10 11 11 11 12 15 12 14 16 16 16 16 10 11 9 10 11 12 13 12 13 11 10 15 17 16 17 19 20 18 18 13 12 14 16 16 11 11 12 13 14 14 13 13 14
6 5 6 7 8 8 7 8 8 8 9 10 10 10 10 9 10 10 10 10 10 11 10 10 14 13 15 15 16 15 15 12 12 11 11 11 11 10 9 10 10 15 16 17 17 18 18 18 16 14 17 16 15 15 13 11 12 12 13 14 15 16 16
6 6 6 7 8 8 8 8 8 7 8 8 9 10 9 9 9 10 11 10 10 11 10 10 12 14 12 14 14 15 15 15 14 9 10 9 8 8 8 8 9 16 16 17 16 14 16 17 14 18 18 17 17 15 14 13 13 12 12 13 14 15 15
Wind_Direction
121 123 123 109 104 101 79 62 66 54 45 51 67 67 49 36 25 24 335 322 312 311 304 285 279 283 278 275 271 272 259 250 257 260 269 270 265 267 229 243 245 252 252 241 241 260 280 289 283 244 242 241 235 238 238 236 232 231 220 217 221 203 198
124 125 124 111 99 82 75 60 56 56 52 47 45 55 53 43 31 8 1 338 317 305 283 276 269 275 282 289 285 274 268 258 256 269 269 263 260 262 279 257 250 255 256 249 244 236 252 273 276 278 279 232 238 241 237 233 229 219 214 214 214 208 196
118 111 99 87 71 66 76 64 59 50 37 44 39 32 33 29 20 9 359 350 325 302 286 281 286 277 272 277 280 287 290 285 270 263 274 282 281 280 268 271 274 275 263 257 247 242 248 247 264 280 277 264 255 237 217 230 229 230 221 210 214 213 208
108 105 103 84 74 65 55 50 39 39 32 30 16 28 28 18 13 11 1 348 329 315 298 298 294 294 291 289 290 290 281 280 284 283 280 271 262 268 270 272 274 268 268 270 282 262 235 241 254 260 269 267 267 274 243 228 233 233 228 217 210 210 212
90 92 88 84 62 46 27 19 19 34 33 30 19 18 20 8 2 1 354 342 334 327 322 310 298 294 295 291 286 278 284 276 273 270 269 276 278 276 275 268 264 274 282 277 274 270 274 268 265 277 280 288 285 275 273 250 225 234 230 226 216 210 208
82 83 82 64 50 48 57 59 46 44 27 12 12 3 4 358 355 352 346 337 331 330 323 314 303 298 292 285 286 281 274 280 286 282 273 265 268 274 280 277 278 273 267 265 265 264 266 268 271 274 271 263 270 273 267 245 244 236 237 233 223 216 206
76 67 67 70 64 60 51 52 46 22 16 17 8 7 359 355 356 348 340 334 332 328 322 315 310 306 299 291 284 280 279 276 274 272 271 270 261 253 246 265 268 266 272 268 266 269 271 274 273 274 284 274 261 273 268 257 246 250 245 235 234 219 213
78 76 68 60 55 51 46 47 40 25 20 9 5 360 360 360 355 348 347 340 336 330 325 322 323 315 306 297 291 284 287 288 284 281 273 264 262 260 258 267 277 280 275 271 272 268 263 261 265 270 273 281 274 262 264 250 250 229 252 241 224 215 211
69 71 67 60 60 54 52 44 36 23 13 1 2 0 0 1 353 351 350 346 340 337 328 321 326 325 320 316 304 298 296 297 294 291 284 275 266 258 261 258 262 264 272 271 267 270 271 268 264 267 265 267 276 281 273 271 239 252 238 235 206 210 202
64 62 63 60 57 52 47 38 23 15 9 8 3 360 356 358 353 355 356 353 350 341 334 334 336 331 326 319 315 315 310 308 302 296 292 283 277 268 263 255 257 263 269 279 282 281 282 278 270 265 262 263 267 269 279 273 272 271 258 215 237 223 215
65 64 61 54 49 49 45 34 20 15 14 9 6 360 360 358 358 360 359 357 355 354 350 342 340 330 325 318 316 315 317 315 307 307 298 289 280 280 279 264 262 267 275 272 274 275 270 261 258 258 260 256 246 258 266 273 278 264 269 217 219 227 187
60 60 55 53 53 49 40 30 29 26 19 15 10 7 5 4 5 5 4 359 356 356 354 350 344 338 330 320 322 316 313 313 309 307 310 308 295 285 280 279 281 272 280 277 271 268 267 265 266 263 259 252 249 255 265 271 275 265 234 246 215 218 193
55 54 52 51 52 46 40 37 33 29 25 19 16 14 14 14 12 9 7 2 360 357 354 350 345 340 335 330 329 324 321 317 311 308 309 310 311 303 295 289 288 290 291 285 279 274 267 269 269 270 268 262 255 246 252 256 256 268 245 244 232 212 205
58 59 58 55 53 47 44 40 35 32 28 27 20 20 19 18 16 13 11 10 6 2 356 353 350 344 342 336 329 324 317 315 313 310 308 304 302 306 311 307 301 298 297 288 280 278 270 269 267 268 270 267 264 254 249 252 256 261 264 230 232 214 210
58 54 52 48 47 46 43 40 36 34 34 30 25 22 21 19 16 13 11 7 4 360 355 352 349 346 345 338 331 327 318 313 310 304 302 299 304 306 309 308 307 306 299 291 289 278 273 271 273 266 267 268 268 266 248 258 259 261 272 234 231 220 214
52 50 49 49 45 43 40 39 36 35 32 31 28 25 20 18 17 14 12 8 4 2 357 353 350 345 341 334 327 323 316 312 309 306 304 302 302 303 301 299 298 300 299 294 293 285 276 273 271 267 272 273 272 270 263 249 253 256 260 260 230 221 212
50 48 50 46 43 40 38 40 39 38 35 31 27 25 23 20 20 18 16 11 9 4 359 355 349 347 340 332 325 319 316 311 305 303 303 303 303 299 295 294 291 295 298 298 299 295 281 277 275 276 275 275 275 273 264 247 246 252 258 264 240 228 215
51 48 47 44 42 41 41 42 41 39 36 32 28 26 25 23 21 21 18 14 9 6 2 357 350 344 338 331 325 320 316 314 312 310 305 302 300 297 295 291 292 295 296 295 299 299 295 292 292 289 281 280 280 277 268 254 249 240 247 249 246 223 221
51 48 46 45 43 43 44 45 43 39 34 33 29 29 28 24 22 20 19 14 11 7 5 0 353 345 338 332 329 327 323 319 316 313 308 303 299 295 293 294 294 293 294 296 298 304 302 296 295 290 282 283 283 279 275 261 241 239 240 241 242 237 206
52 50 49 47 47 47 47 45 43 40 37 36 34 30 29 29 25 24 19 15 13 10 8 5 358 351 345 338 332 332 334 332 327 322 316 313 308 304 296 293 294 293 291 293 311 327 329 321 314 308 305 302 292 285 277 270 259 249 240 242 237 227 221
58 57 54 53 53 53 51 48 43 41 39 38 36 32 28 26 29 28 24 20 17 15 13 10 3 354 350 343 338 341 346 341 337 334 331 331 329 326 324 318 317 321 328 337 342 333 334 327 321 311 309 304 298 294 290 285 269 250 239 240 240 231 220
62 61 57 56 57 55 53 49 46 44 41 40 37 35 34 33 30 28 27 26 22 20 18 11 3 353 348 347 348 356 357 357 357 354 349 347 347 345 341 336 329 334 340 342 343 348 341 332 324 319 312 308 305 299 295 292 280 258 248 244 250 239 231
65 63 58 57 57 56 53 50 47 46 44 43 41 36 36 37 35 34 29 28 27 24 18 12 357 354 358 357 355 10 8 8 5 1 357 352 350 349 346 344 341 348 347 349 344 341 335 328 324 318 310 313 312 309 303 298 287 267 253 243 236 238 227
65 62 60 59 58 59 57 56 53 50 48 45 42 39 35 35 36 33 33 30 27 26 21 7 354 356 357 3 6 15 18 14 14 8 3 0 352 348 351 354 353 355 356 352 344 334 324 327 325 325 322 316 305 306 310 310 303 299 273 250 249 234 234
64 63 63 62 62 64 64 61 56 52 50 48 44 40 41 41 38 35 34 34 32 27 22 6 357 359 1 2 4 13 22 19 16 12 4 3 359 359 356 356 356 356 358 354 344 336 340 336 333 339 351 353 15 26 28 346 316 313 306 294 269 240 234
67 67 66 68 68 68 63 58 56 51 47 42 42 45 43 40 38 35 34 34 32 27 21 7 1 2 2 0 360 11 29 24 23 20 18 15 9 3 358 353 351 355 352 353 354 342 339 352 358 9 12 9 39 27 19 21 21 338 307 293 296 290 259
72 73 76 77 67 64 65 60 51 46 43 40 47 50 45 43 40 37 35 35 34 29 22 7 4 4 3 358 355 16 32 26 26 24 21 20 17 11 4 360 356 355 354 357 358 350 343 351 1 6 13 15 11 10 17 14 7 2 348 322 302 287 297
79 81 81 71 66 61 59 60 53 48 51 51 52 49 44 43 41 38 36 35 36 32 24 8 7 6 5 359 351 26 33 32 29 25 23 23 22 19 14 9 8 7 6 4 0 353 352 352 6 12 17 19 16 15 19 16 15 9 10 3 344 330 320
84 83 78 69 65 64 60 54 53 51 51 51 51 51 50 48 44 41 36 34 36 34 25 14 8 9 7 360 354 36 33 33 31 27 26 26 27 26 22 18 14 12 11 11 2 355 353 349 21 17 19 21 21 20 20 18 10 5 14 15 13 6 347
83 78 70 71 67 63 60 54 51 50 56 54 51 49 49 49 46 42 39 37 35 35 31 18 12 11 10 2 13 34 34 35 34 35 33 28 28 29 28 21 19 15 15 16 2 2 357 354 25 19 19 21 22 21 17 5 4 8 359 3 6 11 10
83 78 74 71 68 65 62 60 56 48 56 56 53 49 49 50 48 43 39 40 34 35 34 23 14 12 14 7 7 34 36 36 34 33 35 31 29 26 23 24 23 17 13 7 3 10 5 10 25 18 14 17 20 22 19 13 6 5 5 3 9 10 15
79 77 74 66 63 65 60 58 57 56 58 58 56 54 50 52 49 44 39 37 33 36 36 28 17 14 17 14 15 42 34 36 34 30 25 22 23 21 17 21 19 16 11 7 10 15 16 16 33 26 23 22 23 24 20 17 13 13 14 16 16 15 17
73 74 74 69 64 59 59 60 56 57 55 56 56 53 54 52 51 46 39 39 40 36 37 36 23 17 19 21 14 30 39 35 27 23 25 23 16 18 21 19 16 10 6 10 15 17 21 18 29 28 23 27 22 22 19 24 21 19 24 22 20 20 20
77 72 72 73 70 63 58 59 57 58 61 59 57 54 51 52 53 50 44 42 42 42 33 30 33 22 22 24 21 16 40 33 27 24 29 30 29 26 20 16 11 5 3 10 16 17 20 22 20 29 19 14 4 333 344 31 27 28 31 28 27 25 22
71 72 70 75 74 69 61 59 56 61 63 62 61 56 52 53 54 53 50 45 41 41 43 35 25 30 23 24 26 25 29 33 13 37 36 39 34 33 27 14 10 360 0 9 16 18 18 19 22 29 5 358 358 356 14 30 32 33 35 32 30 28 25
72 70 69 71 75 71 66 63 58 57 62 65 62 59 53 53 55 54 54 48 44 40 37 43 28 27 26 24 24 28 27 28 7 42 45 40 30 24 16 7 2 0 9 10 12 16 17 14 25 12 3 9 10 7 20 30 24 27 28 28 30 31 25
70 68 69 73 72 70 65 64 60 56 55 61 63 61 55 54 57 56 53 51 47 41 36 36 36 25 26 27 27 26 26 25 20 32 43 39 28 18 12 5 1 8 12 11 7 9 17 20 16 9 7 12 29 32 33 29 29 27 26 25 29 26 23